Погода в Надвоицах

Россия / Республика Карелия     63°53′33″N   34°15′50″E
темп.,
°C
ветер,
м/с
пор.,
м/с
влажн.,
%
обл.,
%
осадки,
мм/ч
давл.,
гПа
погр.,
м
9 мая, вс
вс900:00+4ююз3688100 0.0 1003379
03:00+3ю2592100 0.1 1003340
06:00+2з2598100 0.1 1004518
09:00+2сз499288 0.1 1007663
12:00+7сз585382 0.0 10081687
15:00+9зсз5742100 0.0 10102288
18:00+9з47505 0.1 10121918
21:00+5юз386928 0.1 1014248
10 мая, пн
пн1000:00+3ююз3117832 0.0 1015255
03:00+2ююз398954 0.0 1016257
06:00+3ююз389080 0.0 1017265
09:00+8юз486457 0.0 1018827
12:00+11ююз5944100 0.0 10181947
15:00+11ююз6953100 0.0 10181658
18:00+7ю5988100 0.4 10181047
21:00+6ю41194100 1.6 1018565
11 мая, вт
вт1100:00+7ююз41396100 1.9 1017615
03:00+9ююз41394100 3.6 1017613
06:00+10юз41295100 2.0 1018714
09:00+12юз41088100 2.2 1019616
12:00+17юз5969100 0.0 1020925
15:00+20ююз6135898 0.0 10191457
18:00+19юз61460100 0.0 10201415
21:00+16юз5126996 0.0 1021540
12 мая, ср
ср1200:00+13ююз41375100 0.0 1022508
03:00+12юз4138028 0.0 1023371
06:00+12юз4117745 0.0 1024373
09:00+17юз47595 0.0 1024576
12:00+21юз464730 0.0 10251302
15:00+23юз354173 0.0 10251871
18:00+22ююз24425 0.0 10251838
21:00+16ююв35662 0.0 102583
13 мая, чт
чт1300:00+13ю27820 0.0 1026136
03:00+11ю24822 0.0 102673
06:00+12ююв24731 0.0 1025106
09:00+17ююв34540 0.0 1024323
12:00+20ююв35420 0.0 1023768
15:00+22ююв45345 0.0 10211307
18:00+21ююв35415 0.0 1020607
21:00+16ююв24685 0.0 101971